Wind_Speed
10 13 16 21 25 25 23 22 23 23 22 22 19 23 24 21 18 19 15 15 16 19 22 21 22 24 25 26 26 25 24 21 20 23 22 20 18 14 9 5 3 4 3 4 5 6 6 7 8
12 13 17 19 24 25 22 27 27 27 30 22 22 20 25 27 20 19 16 15 17 18 23 21 21 24 26 28 27 26 24 22 21 23 21 20 19 15 10 6 3 4 4 6 9 7 6 6 6
22 19 20 23 22 25 27 34 31 36 28 26 23 23 22 23 24 21 19 16 17 19 22 24 22 23 26 28 28 26 25 23 22 24 22 20 19 16 13 9 5 5 5 7 8 7 6 6 6
26 25 24 25 25 25 31 35 37 35 33 30 27 25 23 23 27 23 23 18 19 20 22 25 24 22 27 29 28 26 25 25 24 25 24 21 20 18 16 11 7 6 7 6 8 7 6 5 5
30 30 31 31 29 31 32 39 35 37 36 35 31 28 23 23 27 25 23 21 20 20 23 25 25 24 28 31 28 25 25 25 26 26 25 22 20 20 18 13 9 9 8 8 9 8 7 5 5
28 30 32 36 39 39 36 40 39 39 40 35 33 32 25 24 26 27 25 23 22 22 24 26 24 28 28 31 28 26 25 25 26 27 26 23 20 20 19 15 10 10 10 9 10 9 8 6 6
26 28 33 37 45 45 43 38 40 42 42 40 37 31 27 27 26 28 27 25 23 23 26 28 25 25 24 32 30 27 24 25 25 26 26 24 21 20 19 16 13 12 12 8 10 10 10 9 7
25 31 34 36 37 40 42 41 40 42 42 43 37 35 30 28 27 28 31 28 26 25 27 29 27 25 27 30 31 30 27 23 26 26 26 25 23 22 22 20 16 14 13 12 9 9 8 7 7
35 36 35 32 28 27 26 36 41 41 41 41 37 36 31 27 28 28 30 30 26 26 27 29 31 26 28 28 32 35 30 26 24 25 26 26 25 24 23 22 19 17 15 14 14 12 10 10 9
39 38 32 26 27 29 23 32 37 41 43 44 42 38 34 30 30 31 29 32 32 28 28 30 32 30 27 30 31 30 34 30 27 25 26 27 26 24 23 22 21 19 17 15 15 14 12 11 9
39 34 28 27 28 29 26 27 33 41 47 44 40 40 35 34 35 32 30 29 31 32 28 30 32 34 29 27 28 24 37 31 31 28 26 27 27 26 24 22 21 22 20 19 17 17 15 13 12
34 31 31 29 27 28 30 27 30 39 41 41 38 39 37 35 34 32 30 29 27 31 32 31 32 34 34 29 28 28 27 31 32 33 32 29 29 28 27 24 23 22 23 22 21 20 19 17 16
35 32 32 30 27 26 28 27 30 34 40 39 37 38 39 37 34 35 32 27 24 31 35 33 36 33 36 35 32 30 29 30 31 35 35 33 29 30 29 28 26 25 23 23 22 21 21 21 20
33 31 30 23 19 22 22 23 27 29 36 36 40 40 42 40 34 34 37 32 32 37 32 34 33 36 35 39 37 34 31 30 30 29 30 27 30 31 31 30 29 28 27 26 25 24 24 24 24
29 27 25 18 16 19 19 19 20 25 31 34 32 41 43 42 39 44 34 44 44 26 32 24 33 37 40 40 42 39 35 32 29 31 31 28 31 32 31 32 31 31 31 29 29 28 28 28 28
27 25 24 21 18 18 17 16 17 22 27 33 33 40 41 42 40 42 28 35 51 39 35 32 36 38 40 41 43 42 39 35 34 32 31 32 33 32 31 33 34 34 34 33 33 32 32 32 32
28 26 25 22 19 17 16 15 17 20 23 29 29 31 41 36 44 43 48 34 32 39 37 36 41 30 33 44 44 45 43 38 37 36 34 32 32 34 33 34 35 36 35 36 36 36 36 36 35
25 24 23 22 19 17 15 14 14 19 22 25 30 29 32 43 39 39 41 36 35 33 41 38 39 43 30 31 43 43 47 46 40 39 38 37 35 34 34 35 36 37 36 37 38 37 36 36 36
25 23 24 23 19 16 14 13 13 16 20 23 29 29 30 31 38 32 46 37 31 35 40 44 40 38 36 36 45 42 39 43 47 44 42 39 37 39 37 38 39 39 39 38 36 35 35 36 35
27 23 24 23 21 18 17 14 14 14 18 21 26 28 29 29 30 30 33 29 32 30 38 45 43 37 35 42 41 42 38 43 43 50 48 42 44 41 45 48 40 40 41 39 37 38 38 37 36
30 24 23 23 21 16 19 15 10 13 15 15 16 27 28 29 32 32 31 31 29 30 33 43 46 41 40 35 43 44 46 31 45 34 47 50 48 48 48 38 45 40 47 42 42 41 41 40 38
33 27 19 20 20 15 18 14 9 9 12 15 15 16 22 30 31 31 32 31 31 32 32 33 41 45 44 44 40 49 37 35 42 32 28 39 46 50 53 51 40 46 48 44 46 45 44 43 43
39 29 18 15 16 14 14 8 6 8 10 12 16 16 17 21 29 32 31 32 32 33 35 37 34 33 45 44 44 34 36 37 36 37 33 26 35 46 45 50 63 54 33 48 54 52 49 47 49
45 32 14 10 14 15 11 10 6 4 7 9 11 16 16 18 20 27 31 31 32 32 34 36 36 34 36 37 43 41 37 38 38 41 41 40 42 34 27 26 30 45 36 33 43 52 45 48 50
46 39 13 7 13 15 14 9 7 5 6 8 10 12 15 19 21 21 26 30 32 33 33 33 35 35 34 37 37 36 41 46 43 43 43 43 39 35 38 43 40 36 34 28 27 25 40 45 42
45 38 16 10 13 15 15 13 7 6 5 6 9 11 13 15 18 21 26 26 31 32 33 35 36 35 34 33 35 36 37 39 44 51 50 48 47 45 42 42 39 36 39 41 31 33 30 22 26
42 37 20 8 11 13 15 14 11 8 6 6 7 10 11 13 14 17 20 25 31 31 32 33 34 35 35 35 36 37 37 39 42 43 47 50 50 48 44 44 41 39 37 36 42 43 32 28 32
40 39 22 10 8 11 13 14 12 10 8 7 7 7 9 11 12 13 16 19 22 24 28 31 34 35 35 36 36 36 37 38 39 41 43 44 47 50 49 48 46 45 43 42 41 37 40 46 47
36 36 29 17 11 11 11 12 13 12 10 7 6 7 7 6 5 8 12 13 14 16 18 21 25 29 32 35 37 39 40 41 42 41 40 41 42 42 42 42 42 46 45 44 44 44 42 41 41
33 34 30 25 15 12 13 11 9 11 12 10 9 10 11 13 12 11 9 11 16 18 20 20 20 22 22 24 26 27 30 34 39 43 44 44 43 43 43 41 37 39 41 47 46 42 42 44 42
Wind_Direction
318 295 286 268 268 267 267 270 264 262 258 259 262 252 253 255 246 247 245 246 235 222 218 209 207 203 197 191 192 196 201 198 197 193 186 186 188 196 192 173 148 159 191 221 220 214 224 231 230
293 287 284 283 272 265 271 262 259 256 252 248 252 256 244 246 245 242 241 243 242 230 219 218 209 206 202 194 194 195 200 201 198 198 195 189 193 199 204 203 221 210 206 225 224 217 224 236 223
296 286 280 281 262 265 260 255 251 253 253 248 241 245 251 241 240 243 243 233 236 235 227 219 214 210 206 200 196 197 197 199 198 201 201 195 196 201 208 215 235 236 217 229 214 210 217 230 225
295 293 283 275 270 255 249 253 249 253 253 251 244 239 245 241 237 236 238 232 228 229 226 221 217 214 212 204 202 198 200 196 197 203 202 201 199 206 214 221 236 240 228 221 201 205 211 222 222
295 289 285 279 271 257 252 247 244 246 248 252 247 240 236 236 236 234 234 231 228 224 221 225 219 215 213 207 205 201 203 199 197 201 203 202 205 208 218 223 234 237 227 214 199 204 208 207 216
297 288 283 283 278 262 248 245 244 239 241 243 242 244 235 233 230 228 228 230 226 219 219 220 222 218 208 206 207 206 204 205 201 203 203 204 206 211 219 223 231 232 229 214 206 205 212 214 219
295 291 287 279 271 268 254 242 237 233 235 232 237 241 235 229 227 225 225 228 227 222 217 218 220 221 220 206 208 210 209 209 209 207 205 206 206 208 217 224 227 226 227 219 212 213 214 217 226
307 313 301 289 281 275 266 249 238 234 231 234 231 233 231 226 222 224 229 230 230 226 221 216 220 217 220 211 214 213 210 213 213 212 211 208 211 209 212 222 225 224 225 226 212 209 213 214 217
328 319 308 300 295 295 275 249 237 234 235 232 230 229 224 226 224 221 225 227 228 226 225 217 219 219 221 222 216 215 211 211 215 215 216 214 214 217 218 220 221 221 221 228 233 231 228 235 239
329 316 309 296 294 298 293 253 238 234 233 229 225 223 225 222 230 221 220 225 230 226 226 223 220 222 224 226 232 227 206 210 214 214 218 220 221 221 222 224 226 224 224 225 236 240 236 237 242
328 314 303 296 294 294 291 269 241 233 236 229 227 223 226 224 222 227 225 226 232 231 232 228 225 223 226 227 234 229 196 209 212 213 218 220 222 224 225 226 228 228 226 226 229 239 241 243 247
326 315 304 292 290 293 294 267 246 234 236 231 225 221 224 223 221 223 224 224 225 230 231 231 230 225 226 229 227 232 231 218 219 217 214 221 223 224 226 227 230 230 232 231 231 234 242 246 252
331 327 318 298 283 291 292 266 247 236 235 235 221 221 222 224 233 221 222 218 233 229 231 230 226 229 225 230 231 229 228 230 236 227 221 210 224 226 225 227 230 232 233 234 235 236 240 245 252
338 337 331 322 295 293 289 276 250 240 235 234 219 218 218 223 219 225 215 206 218 220 223 224 230 224 229 226 231 231 230 230 230 236 235 229 222 228 228 229 231 233 235 236 238 240 243 249 255
340 339 336 328 308 300 288 276 259 245 238 238 235 214 219 223 220 222 217 207 228 213 215 227 237 235 226 226 230 233 232 231 233 233 237 239 238 228 236 232 234 236 239 240 242 244 247 252 256
340 341 340 332 315 301 294 286 255 244 239 235 238 221 215 221 225 224 215 206 223 225 221 222 236 226 226 225 227 230 232 232 233 235 236 237 241 245 235 243 236 238 242 245 247 249 252 255 259
343 343 342 334 326 305 298 292 258 243 240 238 234 230 216 223 228 229 232 227 228 220 212 225 238 206 215 228 225 227 230 232 234 235 235 237 237 241 240 240 246 244 242 245 247 251 254 259 263
340 347 343 339 325 318 299 291 269 243 238 240 233 230 231 231 225 229 225 229 225 232 218 221 225 229 211 215 224 228 228 228 232 234 235 236 242 242 241 241 242 245 247 247 248 251 255 258 260
340 343 343 342 322 317 316 290 272 251 239 240 233 233 233 240 246 239 229 227 225 236 229 225 232 239 237 231 224 227 233 237 231 232 236 236 233 242 241 244 243 243 245 247 250 252 254 258 262
340 333 340 341 328 314 309 297 274 253 243 239 231 235 237 242 244 248 249 245 225 237 240 234 232 233 229 229 223 228 241 247 240 235 231 234 239 239 249 240 242 246 247 250 253 254 256 259 262
344 327 328 338 337 317 310 295 281 255 239 249 245 233 237 239 243 245 248 252 250 242 240 236 234 240 239 241 232 230 232 238 229 249 240 232 237 241 242 254 250 253 242 246 249 252 256 262 266
347 334 322 337 344 334 332 311 280 264 233 231 242 246 241 243 243 246 245 244 249 252 249 240 241 241 243 241 244 240 241 228 239 232 243 250 248 245 241 247 245 253 258 253 252 254 257 262 265
351 340 324 335 347 344 350 344 284 246 229 235 236 242 245 244 243 247 245 244 242 245 248 251 252 247 245 245 248 246 251 263 253 250 243 243 254 251 258 254 242 244 258 257 248 250 252 257 264
357 349 331 336 352 356 344 354 339 270 255 250 247 243 244 246 249 244 246 244 242 242 246 246 251 253 251 249 249 246 242 244 250 254 259 267 263 268 250 264 267 261 264 275 253 259 258 264 263
3 357 353 351 8 359 1 341 342 323 270 262 257 252 250 250 249 248 245 245 243 240 241 245 247 249 253 254 252 254 254 250 246 249 260 258 260 258 263 274 277 280 271 276 256 259 266 266 270
8 3 6 11 9 7 2 358 338 300 295 286 273 262 258 256 256 253 246 245 244 244 242 242 245 246 248 251 251 254 257 260 253 251 257 259 262 263 262 260 263 266 275 274 269 266 272 273 255
13 9 10 6 2 7 11 7 6 353 314 292 281 282 273 262 259 258 255 251 246 245 246 246 246 248 250 251 251 253 257 258 259 258 255 257 257 261 261 260 257 259 260 263 265 272 271 271 271
16 15 11 3 354 3 11 7 3 358 354 333 323 310 298 291 281 269 258 255 252 250 249 248 247 247 249 251 252 253 254 258 260 262 263 262 260 258 258 260 261 260 258 257 254 257 256 268 271
14 17 15 2 348 352 1 1 354 348 350 353 344 343 345 337 308 282 279 270 256 254 254 253 254 254 253 253 254 255 255 256 257 260 261 262 265 266 263 262 263 261 259 256 254 253 257 259 260
10 14 11 7 348 338 346 349 350 345 346 356 3 13 21 17 21 10 317 277 257 257 254 254 258 257 260 259 259 262 263 261 258 257 259 261 262 263 263 262 258 258 261 259 256 256 258 259 260
Height
5812 5813 5813 5813 5816 5816 5817 5817 5816 5816 5816 5817 5819 5819 5820 5820 5822 5823 5824 5824 5825 5825 5826 5827 5827 5828 5830 5831 5834 5837 5840 5842 5843 5845 5846 5848 5850 5852 5853 5852 5852 5853 5855 5855 5856 5857 5858 5858 5858
5811 5810 5811 5809 5811 5810 5814 5812 5812 5810 5808 5812 5813 5815 5815 5815 5818 5819 5821 5822 5823 5824 5824 5826 5826 5825 5828 5829 5832 5834 5838 5841 5842 5845 5847 5847 5849 5851 5853 5853 5853 5853 5854 5855 5855 5856 5857 5857 5857
5809 5806 5806 5805 5804 5807 5808 5804 5805 5803 5806 5807 5807 5809 5810 5813 5813 5815 5816 5818 5820 5822 5823 5824 5825 5826 5826 5827 5829 5832 5835 5838 5840 5843 5846 5847 5848 5850 5852 5853 5854 5853 5853 5853 5854 5855 5856 5857 5857
5804 5802 5799 5797 5798 5799 5798 5796 5796 5798 5801 5801 5803 5803 5806 5807 5809 5810 5812 5814 5815 5818 5821 5821 5823 5824 5825 5826 5827 5829 5832 5834 5838 5841 5844 5846 5847 5849 5851 5852 5853 5853 5853 5853 5854 5854 5855 5856 5857
5801 5799 5797 5794 5793 5791 5791 5787 5790 5791 5793 5795 5797 5798 5801 5802 5804 5806 5807 5809 5811 5814 5817 5818 5820 5822 5822 5824 5826 5828 5830 5832 5835 5838 5841 5844 5846 5847 5850 5851 5851 5852 5853 5852 5853 5854 5855 5855 5856
5798 5794 5790 5788 5784 5781 5781 5780 5782 5783 5784 5788 5790 5792 5796 5797 5798 5801 5804 5806 5807 5809 5812 5815 5817 5819 5820 5822 5824 5826 5828 5830 5833 5835 5838 5841 5844 5846 5848 5849 5850 5851 5853 5852 5853 5853 5854 5855 5855
5793 5789 5784 5779 5773 5769 5772 5773 5773 5774 5775 5777 5783 5786 5791 5792 5794 5797 5799 5802 5805 5806 5808 5811 5813 5815 5816 5819 5821 5824 5827 5828 5831 5833 5835 5838 5841 5843 5846 5847 5849 5850 5851 5852 5852 5852 5853 5853 5854
5784 5780 5773 5768 5764 5759 5759 5763 5764 5766 5769 5771 5776 5778 5783 5786 5789 5791 5794 5798 5800 5802 5804 5808 5809 5811 5812 5815 5819 5821 5824 5827 5829 5831 5834 5836 5838 5840 5842 5845 5847 5848 5849 5851 5852 5852 5852 5853 5854
5774 5769 5762 5756 5754 5749 5749 5751 5754 5758 5760 5765 5769 5772 5776 5781 5783 5785 5789 5793 5796 5798 5800 5803 5805 5807 5810 5812 5814 5818 5821 5824 5827 5829 5831 5834 5836 5838 5840 5843 5844 5846 5847 5849 5850 5851 5851 5852 5853
5768 5760 5755 5751 5748 5744 5743 5742 5746 5750 5750 5752 5759 5765 5770 5774 5777 5779 5783 5787 5791 5794 5797 5798 5802 5804 5805 5807 5810 5811 5815 5819 5823 5825 5828 5831 5833 5837 5838 5840 5842 5843 5845 5847 5848 5849 5850 5850 5851
5760 5752 5748 5745 5742 5739 5737 5735 5739 5741 5741 5749 5754 5760 5765 5768 5772 5775 5779 5783 5788 5791 5794 5796 5797 5800 5802 5803 5805 5808 5808 5814 5818 5821 5824 5826 5830 5832 5836 5838 5840 5841 5842 5843 5845 5846 5848 5849 5849
5754 5747 5742 5738 5736 5732 5730 5729 5730 5734 5736 5740 5747 5753 5757 5761 5767 5770 5775 5777 5781 5785 5787 5790 5793 5796 5799 5800 5801 5804 5807 5809 5813 5816 5820 5823 5826 5828 5831 5834 5836 5837 5840 5841 5842 5843 5845 5845 5846
5748 5741 5735 5731 5729 5727 5724 5721 5721 5726 5729 5735 5740 5747 5752 5756 5761 5765 5769 5774 5775 5778 5781 5783 5787 5790 5793 5796 5798 5800 5803 5807 5809 5811 5814 5817 5821 5824 5826 5829 5832 5834 5836 5838 5839 5840 5842 5843 5843
5742 5736 5730 5725 5723 5721 5718 5715 5717 5720 5724 5729 5733 5739 5745 5750 5755 5758 5763 5768 5767 5768 5773 5778 5781 5785 5788 5792 5794 5796 5800 5803 5806 5807 5809 5813 5816 5819 5822 5824 5827 5830 5832 5833 5835 5836 5837 5839 5840
5739 5735 5728 5723 5720 5717 5715 5713 5713 5715 5719 5723 5726 5732 5738 5743 5749 5751 5743 5758 5754 5754 5766 5772 5777 5777 5782 5785 5789 5792 5795 5799 5802 5804 5807 5810 5813 5813 5817 5820 5823 5825 5828 5829 5831 5832 5833 5834 5835
5737 5731 5725 5720 5716 5714 5712 5709 5709 5711 5714 5717 5720 5725 5731 5736 5741 5744 5745 5747 5752 5757 5763 5769 5765 5768 5772 5777 5781 5785 5789 5793 5797 5800 5803 5806 5809 5811 5813 5815 5817 5820 5823 5825 5826 5827 5828 5829 5830
5733 5727 5722 5718 5713 5711 5709 5706 5706 5707 5709 5713 5717 5720 5724 5730 5734 5737 5738 5742 5747 5752 5755 5757 5752 5759 5765 5768 5772 5778 5783 5788 5791 5794 5798 5801 5803 5806 5808 5810 5813 5814 5816 5818 5820 5821 5822 5824 5825
5732 5727 5722 5717 5712 5708 5706 5704 5703 5703 5705 5708 5712 5716 5720 5720 5726 5729 5732 5738 5741 5744 5747 5748 5751 5753 5756 5758 5764 5770 5775 5780 5784 5788 5791 5796 5798 5800 5802 5804 5806 5808 5810 5811 5813 5815 5817 5817 5818
5730 5726 5721 5716 5711 5707 5703 5701 5700 5700 5701 5703 5707 5711 5714 5718 5718 5721 5726 5730 5734 5738 5741 5742 5742 5747 5751 5756 5760 5761 5767 5771 5776 5780 5784 5788 5784 5793 5795 5797 5799 5801 5803 5805 5807 5809 5809 5811 5812
5729 5724 5719 5715 5709 5705 5701 5699 5697 5696 5697 5699 5701 5705 5708 5710 5714 5716 5718 5722 5727 5731 5733 5736 5737 5740 5745 5750 5753 5756 5760 5764 5768 5770 5776 5780 5784 5786 5786 5787 5792 5795 5797 5799 5801 5802 5803 5804 5805
5726 5720 5716 5712 5706 5702 5698 5695 5694 5694 5695 5696 5698 5700 5703 5707 5709 5712 5714 5717 5719 5724 5727 5730 5733 5736 5739 5741 5744 5748 5754 5756 5761 5763 5768 5771 5775 5778 5780 5782 5785 5787 5790 5793 5794 5796 5797 5798 5800
5723 5717 5713 5709 5705 5700 5695 5693 5692 5692 5694 5696 5697 5699 5700 5701 5704 5707 5710 5712 5715 5718 5722 5725 5727 5730 5733 5736 5739 5742 5748 5751 5754 5758 5760 5763 5766 5769 5773 5776 5779 5781 5784 5786 5787 5788 5789 5790 5791
5722 5714 5710 5707 5704 5700 5696 5692 5690 5691 5692 5694 5696 5697 5698 5699 5700 5701 5705 5707 5710 5712 5714 5718 5721 5723 5726 5730 5734 5738 5743 5744 5748 5749 5752 5755 5759 5763 5765 5765 5766 5772 5772 5776 5777 5779 5781 5782 5783
5719 5710 5706 5706 5703 5700 5697 5694 5692 5691 5692 5693 5694 5695 5696 5697 5698 5699 5699 5702 5704 5707 5709 5711 5714 5717 5720 5722 5727 5730 5735 5739 5742 5745 5747 5748 5752 5754 5757 5758 5763 5765 5768 5767 5766 5769 5771 5772 5773
5719 5709 5705 5706 5702 5700 5697 5695 5694 5692 5691 5691 5692 5692 5692 5693 5694 5694 5695 5697 5699 5702 5704 5705 5708 5711 5714 5716 5718 5721 5724 5729 5732 5736 5739 5743 5745 5749 5751 5753 5755 5758 5758 5759 5760 5761 5765 5765 5766
5719 5710 5705 5705 5703 5701 5699 5697 5695 5693 5692 5691 5691 5690 5690 5690 5690 5691 5691 5691 5693 5695 5698 5700 5702 5705 5707 5710 5713 5715 5718 5720 5723 5727 5731 5734 5736 5739 5743 5747 5747 5749 5751 5753 5755 5756 5757 5756 5759
5722 5714 5708 5706 5705 5703 5700 5698 5695 5692 5691 5690 5689 5689 5688 5687 5687 5687 5687 5687 5688 5689 5690 5692 5695 5698 5701 5703 5706 5709 5711 5713 5714 5716 5719 5722 5726 5729 5733 5735 5738 5740 5742 5744 5746 5748 5749 5751 5752
5725 5718 5712 5709 5707 5703 5701 5698 5696 5694 5692 5690 5688 5687 5686 5685 5684 5683 5682 5682 5683 5684 5686 5688 5690 5692 5695 5697 5700 5702 5703 5705 5706 5708 5710 5713 5715 5718 5722 5726 5729 5731 5734 5736 5738 5739 5742 5742 5743
5728 5720 5714 5711 5708 5704 5702 5700 5696 5694 5692 5690 5688 5687 5685 5684 5682 5681 5680 5679 5679 5680 5681 5682 5684 5686 5688 5690 5692 5693 5695 5697 5698 5700 5702 5703 5705 5707 5711 5715 5717 5720 5723 5726 5728 5731 5732 5733 5733
5729 5722 5716 5711 5709 5704 5701 5701 5697 5694 5692 5690 5687 5686 5684 5682 5680 5679 5677 5676 5675 5676 5676 5677 5679 5680 5682 5683 5685 5686 5687 5688 5690 5692 5693 5694 5696 5698 5701 5704 5707 5710 5711 5714 5716 5718 5721 5722 5724